Kuchera_Ratio
0.0 0.0 0.0 0.0 0.0 0.0 0.0 0.0 0.0 0.0 0.0 0.0 0.0 0.0 0.0 0.0 0.0 0.0 0.0 0.0 0.0 0.0 0.0 2.6 2.5 1.5 0.0 0.0 0.0 0.0 0.0 3.4 8.7 2.5 0.0 0.3 0.8 0.5 0.0 6.0 7.0 8.5 9.8 2.3
0.0 0.0 0.0 0.0 0.0 0.0 0.0 0.0 0.0 0.0 0.0 0.0 0.0 0.0 0.0 0.0 0.0 0.0 0.0 0.0 0.0 0.0 0.0 2.2 0.4 0.0 0.0 0.0 0.0 0.0 0.0 4.5 8.4 9.0 5.0 2.7 4.3 2.4 1.1 0.0 3.7 5.9 12.4 1.8
0.0 0.0 0.0 0.0 0.0 0.0 0.0 0.0 0.0 0.0 0.0 0.0 0.0 0.0 0.0 0.0 0.0 0.0 0.0 0.0 0.0 0.0 0.4 0.0 0.0 0.0 0.0 0.0 0.0 0.0 0.0 3.8 5.9 7.2 4.2 1.6 5.0 2.1 3.6 3.5 5.5 4.3 5.7 0.0
0.0 0.0 0.0 0.0 0.0 0.0 0.0 0.0 0.0 0.0 0.0 0.0 0.0 0.0 0.0 0.0 0.0 0.0 0.0 0.0 0.0 0.0 1.7 1.3 3.2 0.0 0.1 0.0 0.0 0.0 0.0 4.4 4.1 1.8 1.6 2.8 2.5 1.4 1.9 4.6 1.2 5.8 0.0 0.0
0.0 0.0 0.0 0.0 0.0 0.0 0.0 0.0 0.0 0.0 0.0 0.0 0.0 0.0 0.0 0.0 0.0 0.0 0.0 0.0 0.0 0.0 1.1 0.0 1.0 0.0 0.1 0.0 2.7 1.4 2.1 4.8 6.1 4.7 2.8 4.2 4.9 1.9 3.1 2.6 2.5 3.6 2.9 0.0
0.0 0.0 0.0 0.0 0.0 0.0 0.0 0.0 0.0 0.0 0.0 0.2 1.5 0.0 0.0 0.0 0.0 0.0 0.0 0.0 0.0 0.0 0.0 0.0 0.0 0.0 0.0 0.0 0.0 1.9 4.0 5.6 7.1 8.5 6.1 6.2 8.7 0.2 0.0 0.0 0.6 0.0 2.2 0.0
0.0 0.0 0.0 0.0 0.0 0.0 0.0 0.0 0.0 1.4 4.5 2.5 0.7 0.0 0.0 0.0 0.0 0.0 0.0 0.0 0.0 0.0 0.0 0.0 0.0 0.0 0.0 0.0 0.0 0.2 5.5 6.4 6.0 10.4 7.9 13.8 0.0 0.0 0.0 0.0 0.0 0.0 0.0 0.0
0.0 0.0 0.0 0.0 0.0 0.0 0.0 0.0 0.0 1.2 7.3 4.8 2.2 1.1 1.0 0.0 0.0 0.0 0.0 0.0 0.0 0.0 0.0 0.0 4.7 5.8 3.5 5.0 5.6 4.4 3.1 5.7 7.4 11.7 12.6 6.4 0.0 0.0 0.0 0.0 0.0 0.0 0.0 0.0
0.0 0.0 0.0 0.0 0.0 0.0 0.0 0.0 0.0 0.0 2.6 5.4 0.0 0.7 0.0 2.9 1.4 1.1 0.0 0.0 0.0 0.0 0.8 2.4 8.8 9.6 4.9 8.0 7.9 7.0 6.9 5.9 7.5 13.6 13.7 13.8 0.0 0.0 0.0 0.0 2.6 0.0 0.0 0.0
0.0 0.0 0.0 0.0 0.0 0.0 0.0 0.0 0.0 0.0 2.6 0.0 0.0 2.2 0.2 0.0 1.5 3.2 2.7 1.5 1.3 0.0 4.2 9.1 9.4 9.3 5.0 9.3 6.8 5.8 9.4 12.8 13.2 13.7 14.3 10.3 0.0 0.0 0.0 8.6 0.9 0.0 0.0 0.0
0.0 0.0 0.0 0.0 0.0 0.0 0.0 0.0 0.0 0.0 1.2 0.0 0.0 0.0 0.0 0.0 0.3 5.2 1.9 2.3 5.3 7.7 8.8 10.0 7.9 8.9 6.6 8.0 6.9 6.9 7.3 7.7 10.0 13.3 15.3 14.6 0.0 0.0 2.6 0.0 0.0 0.0 0.0 0.0
0.0 0.0 0.0 0.0 0.0 0.0 0.0 0.0 0.0 0.0 0.4 0.2 0.0 0.0 0.0 0.0 0.0 0.0 0.7 0.0 2.5 1.8 6.6 8.1 8.9 9.8 10.0 8.8 12.5 5.7 8.4 2.6 3.4 4.2 1.4 0.0 0.0 0.0 0.0 0.0 0.0 0.0 0.0 0.0
0.0 0.0 0.0 0.0 0.0 0.0 0.0 0.0 0.0 0.0 2.2 2.1 0.4 0.1 0.0 0.0 0.0 0.0 0.1 2.8 0.0 0.0 0.0 4.0 5.6 11.0 8.0 9.5 8.5 5.8 4.3 1.7 5.1 3.9 0.0 0.0 0.0 0.0 0.0 0.0 0.0 0.0 0.0 0.0
0.0 0.0 0.0 0.0 0.0 0.0 0.0 0.0 0.0 0.0 0.0 9.6 6.0 0.0 0.0 0.0 0.0 0.0 0.0 0.0 0.0 0.0 0.0 2.3 6.6 7.9 2.6 8.4 1.8 6.5 0.0 1.3 3.8 5.4 0.0 0.0 0.0 0.0 0.0 0.0 0.0 0.0 0.0 0.0
0.0 0.0 0.0 0.0 0.0 0.0 0.0 0.0 0.0 0.0 0.9 9.3 8.0 0.0 0.0 0.0 0.0 0.0 0.0 0.0 0.0 2.5 6.5 8.3 9.8 6.2 6.8 6.6 6.8 10.3 4.0 1.6 4.0 2.1 0.0 0.0 0.0 0.0 0.0 0.0 0.0 0.0 0.0 0.0
0.0 0.0 0.0 0.0 0.0 0.0 0.0 5.2 0.0 0.0 0.0 5.9 12.4 0.6 0.8 1.2 0.0 0.0 0.0 0.1 1.8 3.3 6.5 7.3 5.0 2.3 0.8 10.4 12.5 0.0 0.0 0.0 0.0 0.0 0.0 0.0 0.0 0.0 0.0 0.0 0.0 0.0 0.0 0.0
0.0 0.0 0.0 0.0 0.0 0.0 3.3 4.7 0.0 0.0 0.0 6.2 9.3 11.7 5.5 3.5 3.7 4.7 5.4 1.4 3.4 4.3 6.1 8.6 8.9 5.8 2.3 10.7 11.2 1.2 0.0 0.0 0.0 0.0 0.0 0.0 0.0 0.0 0.0 0.0 0.0 0.0 0.0 0.0
0.0 0.0 0.0 0.0 0.0 0.0 1.4 0.0 0.0 0.0 0.9 4.2 12.4 12.0 11.2 3.7 8.8 8.3 4.3 7.7 6.5 6.8 7.2 7.9 10.7 7.7 7.4 12.3 6.8 0.7 0.0 0.0 0.0 0.0 0.0 0.0 0.0 0.0 0.0 0.0 0.0 0.0 0.0 0.0
0.0 0.0 0.0 0.0 1.1 5.6 2.4 0.0 0.0 0.0 1.8 12.1 10.8 14.1 13.9 6.0 8.7 7.3 7.6 6.6 12.6 7.4 11.1 10.4 8.7 10.7 12.8 8.5 5.3 3.4 2.7 3.0 2.6 0.0 0.0 0.0 0.6 0.0 0.0 0.0 0.0 0.5 0.8 0.1
0.0 0.0 5.9 12.1 3.9 0.0 0.0 1.8 6.0 5.7 5.0 6.7 13.0 10.6 13.1 10.9 9.8 10.9 11.9 9.5 12.6 14.7 11.6 8.2 12.0 12.1 5.1 6.1 5.5 4.4 5.4 4.8 3.9 5.3 5.5 3.5 4.5 4.2 1.5 1.2 0.0 0.0 0.0 0.0
3.0 8.7 11.2 4.9 0.0 4.5 8.5 12.1 11.5 10.1 12.4 9.5 12.2 10.3 12.2 9.1 12.6 12.0 11.1 13.5 12.8 15.0 13.0 13.3 13.8 14.6 12.1 8.7 6.9 4.8 5.0 5.2 4.6 3.7 2.0 2.5 3.8 4.1 4.0 2.5 2.1 2.6 2.3 2.9
3.5 5.5 4.5 6.8 10.7 12.2 14.0 14.4 13.0 12.8 15.0 12.1 12.4 10.8 8.9 9.7 9.1 11.6 11.6 13.5 13.2 15.6 10.6 13.2 16.6 14.3 12.8 11.6 9.6 7.8 8.0 7.1 5.6 4.2 4.1 3.3 2.8 3.6 4.8 5.2 5.2 4.5 4.4 5.0
4.5 8.4 12.8 15.4 15.3 18.4 19.8 19.8 18.9 16.8 14.2 13.2 12.9 13.6 11.0 10.6 8.4 11.0 12.3 14.7 15.4 11.9 14.2 15.7 15.3 12.7 11.7 12.0 10.0 8.9 9.0 6.7 5.9 6.5 5.7 5.6 6.3 5.3 5.4 6.8 6.6 6.0 6.1 5.3
12.0 15.9 18.5 18.0 18.4 18.0 18.1 18.2 18.6 15.4 15.4 14.0 13.9 14.6 12.7 12.9 13.5 13.1 15.0 14.4 15.1 17.9 18.2 17.4 15.2 14.2 13.5 12.3 9.9 10.1 10.7 8.8 8.9 8.7 7.6 7.6 7.2 7.6 6.1 5.9 5.0 4.7 5.2 4.4
14.5 15.9 18.4 18.7 15.6 15.5 15.6 15.7 16.1 13.8 13.7 13.7 14.5 13.4 13.0 15.1 15.3 13.2 15.1 16.8 18.0 16.4 17.5 15.4 14.3 14.0 13.8 12.8 10.9 12.2 12.2 11.8 10.9 10.4 9.8 9.5 9.1 8.3 7.8 6.8 5.9 5.1 5.2 5.5
15.4 16.5 18.4 16.9 17.2 16.3 15.7 15.9 15.8 13.7 14.5 14.4 12.4 15.7 15.9 16.7 16.6 16.9 17.3 18.0 19.7 16.8 14.9 13.8 14.9 14.1 13.6 13.4 12.6 12.2 11.8 11.3 10.9 10.6 10.6 10.4 10.4 10.6 10.4 9.2 8.3 8.2 8.3 8.2
15.9 16.8 16.0 16.0 16.0 16.8 16.3 16.2 15.5 13.3 14.3 17.2 16.9 18.3 18.3 16.6 17.7 18.2 16.4 17.9 15.9 14.7 13.7 13.4 13.3 13.7 13.8 13.1 12.6 12.5 12.2 12.0 11.9 11.7 11.5 11.5 11.2 10.6 10.0 10.1 10.1 10.2 9.8 9.8